CST,Max TemperatureF,Mean TemperatureF,Min TemperatureF,Max Dew PointF,MeanDew PointF,Min DewpointF,Max Humidity, Mean Humidity, Min Humidity, Max Sea Level PressureIn, Mean Sea Level PressureIn, Min Sea Level PressureIn, Max VisibilityMiles, Mean VisibilityMiles, Min VisibilityMiles, Max Wind SpeedMPH, Mean Wind SpeedMPH, Max Gust SpeedMPH,PrecipitationIn, CloudCover, Events, WindDirDegrees
2012-11-1,50,42,33,41,34,28,93,75,50,30.02,29.98,29.95,10,9,4,16,4,21,0.00,2,,21
2012-11-2,48,40,32,32,29,27,81,66,46,30.09,30.02,29.98,10,10,10,14,7,20,0.00,2,,89
2012-11-3,51,38,24,32,30,25,100,74,44,30.21,30.16,30.09,10,10,6,8,3,12,0.00,4,,27
2012-11-4,55,45,35,43,36,32,93,74,47,30.19,30.10,30.01,10,9,3,13,3,17,0.01,7,Rain,131
2012-11-5,42,42,41,43,40,39,100,94,87,30.16,30.09,30.01,10,4,1,12,7,14,0.02,8,Rain,20
2012-11-6,53,46,39,39,36,34,93,71,47,30.04,29.97,29.89,10,8,3,26,14,36,0.00,6,,296
2012-11-7,50,41,32,34,31,28,93,72,47,30.16,30.09,30.03,10,10,10,13,6,15,0.00,0,,126
2012-11-8,62,50,37,36,34,32,87,64,36,30.03,29.93,29.87,10,10,7,21,11,29,0.00,1,,174
2012-11-9,60,46,33,52,41,34,100,79,55,29.89,29.81,29.68,10,10,9,17,7,23,0.00,2,,78
2012-11-10,77,62,48,57,54,46,100,71,44,29.67,29.57,29.47,10,10,3,31,15,45,0.07,2,Rain,186
2012-11-11,44,32,21,43,21,12,100,75,55,30.11,29.92,29.67,10,8,2,25,15,33,0.01,4,Rain,303
2012-11-12,35,27,17,16,14,12,86,64,38,30.36,30.23,30.11,10,10,10,23,10,30,0.00,0,,265
2012-11-13,51,34,17,32,22,14,86,58,30,30.36,30.31,30.22,10,10,9,21,6,26,0.00,2,,182
2012-11-14,55,44,33,32,28,27,75,56,33,30.30,30.24,30.17,10,10,8,15,9,22,0.00,1,,196
2012-11-15,57,44,30,34,31,25,81,62,36,30.45,30.29,30.18,10,10,9,14,8,20,0.00,2,,329
2012-11-16,53,36,19,32,25,16,93,65,38,30.46,30.39,30.30,10,10,9,15,5,21,0.00,0,,161
2012-11-17,59,49,39,36,33,30,81,58,36,30.31,30.23,30.16,10,10,8,26,14,37,0.00,3,,174
2012-11-18,60,52,44,39,31,28,62,47,34,30.17,30.10,30.04,10,10,9,22,14,30,0.00,4,,178
2012-11-19,59,50,41,41,37,36,81,65,45,30.11,30.04,29.99,10,10,9,17,12,23,0.00,2,,234
2012-11-20,62,45,28,39,33,27,100,66,30,30.22,30.15,30.10,10,8,0,16,3,23,0.00,0,Fog,191
2012-11-21,71,56,42,45,40,36,76,58,35,30.10,29.97,29.79,10,10,9,24,13,36,0.00,0,,197
2012-11-22,59,46,33,45,37,21,87,66,41,30.20,29.90,29.71,10,10,10,32,14,43,0.00,1,,273
2012-11-23,33,24,14,21,12,9,79,60,44,30.45,30.38,30.21,10,10,10,28,18,38,0.00,2,Snow,316
2012-11-24,39,26,12,21,15,9,86,60,39,30.37,30.08,29.84,10,10,7,20,5,28,0.00,2,Snow,175
2012-11-25,37,34,30,27,25,21,80,66,56,30.17,29.99,29.85,10,10,7,12,5,14,0.00,4,,353
2012-11-26,33,22,10,23,13,5,79,64,46,30.43,30.35,30.18,10,10,5,17,9,20,0.00,3,,21
2012-11-27,39,24,8,21,15,5,93,72,45,30.42,30.28,30.13,10,9,5,18,5,26,0.00,0,Snow,204
2012-11-28,46,30,14,27,20,10,93,68,37,30.37,30.25,30.08,10,8,4,16,4,22,0.00,1,Snow,181
2012-11-29,53,42,30,34,30,27,100,73,47,30.08,29.99,29.91,10,9,5,9,6,15,0.00,0,,172
2012-11-30,48,36,24,36,31,23,100,84,62,30.08,30.01,29.92,7,5,3,8,3,,0.00,1,,67